,,PA_Meas_PMT16A,,PR_Meas_QMR101_102,,RH_Meas_QMH101,,SR_Meas_QMS101,,TA_Meas_QMH101,,GenWind,,GenWind,
time,status,PA,status,PR,status,RH,status,SR,status,TA,status,DirAvg,status,SpdAvg,
2010-10-07, 00:00:05,VALID,917.999,VALID,0,VALID,85.1612,VALID,0,VALID,19.2723,VALID,5,VALID,0,
2010-10-07, 00:01:05,VALID,918.022,VALID,0,VALID,86.8383,VALID,0,VALID,19.3308,VALID,5,VALID,0,
2010-10-07, 00:02:05,VALID,918.009,VALID,0,VALID,89.6209,VALID,0,VALID,19.3503,VALID,5,VALID,0,
2010-10-07, 00:03:04,VALID,917.998,VALID,0,VALID,90.1774,VALID,0,VALID,19.3113,VALID,5,VALID,0,
2010-10-07, 00:04:04,VALID,917.975,VALID,0,VALID,90.1316,VALID,0,VALID,19.2528,VALID,5,VALID,0,
2010-10-07, 00:05:04,VALID,917.998,VALID,0,VALID,90.3985,VALID,0,VALID,19.1359,VALID,5,VALID,0,
2010-10-07, 00:06:04,VALID,917.987,VALID,0,VALID,90.4061,VALID,0,VALID,19.0189,VALID,5,VALID,0,
2010-10-07, 00:07:04,VALID,917.976,VALID,0,VALID,91.0465,VALID,0,VALID,18.9019,VALID,5,VALID,0,
2010-10-07, 00:08:04,VALID,917.981,VALID,0,VALID,91.5877,VALID,0,VALID,18.785,VALID,5,VALID,0,
2010-10-07, 00:09:04,VALID,917.996,VALID,0,VALID,91.5572,VALID,0,VALID,18.6875,VALID,5,VALID,0,
2010-10-07, 00:10:04,VALID,917.975,VALID,0,VALID,88.8662,VALID,0,VALID,18.59,VALID,5,VALID,0.06875,
2010-10-07, 00:11:04,VALID,917.954,VALID,0,VALID,86.3504,VALID,0,VALID,18.6485,VALID,5,VALID,0.535547,
2010-10-07, 00:12:04,VALID,917.96,VALID,0,VALID,86.785,VALID,0,VALID,18.7669,VALID,5,VALID,0.363672,
2010-10-07, 00:13:04,VALID,917.984,VALID,0,VALID,87.0061,VALID,0,VALID,18.8434,VALID,5,VALID,0.284766,
2010-10-07, 00:14:04,VALID,917.97,VALID,0,VALID,86.8841,VALID,0,VALID,18.8629,VALID,5,VALID,0.234375,
2010-10-07, 00:15:04,VALID,917.966,VALID,0,VALID,84.6657,VALID,0,VALID,18.9214,VALID,5,VALID,0.219922,
2010-10-07, 00:16:04,VALID,917.954,VALID,0,VALID,86.7011,VALID,0,VALID,18.9799,VALID,5,VALID,0,
2010-10-07, 00:17:04,VALID,917.925,VALID,0,VALID,88.6832,VALID,0,VALID,19.0579,VALID,5,VALID,0,
2010-10-07, 00:18:04,VALID,917.957,VALID,0,VALID,89.0491,VALID,0.107441,VALID,19.0579,VALID,5,VALID,0,
2010-10-07, 00:19:04,VALID,917.925,VALID,0,VALID,89.3159,VALID,0,VALID,19.0774,VALID,5,VALID,0.0730469,
2010-10-07, 00:20:04,VALID,917.919,VALID,0,VALID,87.9285,VALID,0,VALID,19.0384,VALID,5,VALID,0,
2010-10-07, 00:21:04,VALID,917.91,VALID,0,VALID,88.7289,VALID,0,VALID,18.9799,VALID,5,VALID,0,
2010-10-07, 00:22:04,VALID,917.911,VALID,0,VALID,89.2397,VALID,0,VALID,18.9604,VALID,5,VALID,0,
2010-10-07, 00:23:04,VALID,917.904,VALID,0,VALID,89.5751,VALID,0,VALID,18.9229,VALID,5,VALID,0,
2010-10-07, 00:24:04,VALID,917.894,VALID,0,VALID,88.7137,VALID,0,VALID,18.8434,VALID,5,VALID,0,
2010-10-07, 00:25:04,VALID,917.887,VALID,0,VALID,88.0047,VALID,0,VALID,18.8059,VALID,5,VALID,0,
2010-10-07, 00:26:04,VALID,917.856,VALID,0,VALID,88.7518,VALID,0,VALID,18.785,VALID,5,VALID,0,
2010-10-07, 00:27:04,VALID,917.853,VALID,0,VALID,89.6361,VALID,0,VALID,18.7864,VALID,5,VALID,0,
2010-10-07, 00:28:04,VALID,917.844,VALID,0,VALID,89.5904,VALID,0.107441,VALID,18.707,VALID,5,VALID,0.166406,
2010-10-07, 00:29:04,VALID,917.854,VALID,0,VALID,90.246,VALID,0,VALID,18.707,VALID,5,VALID,0.169922,
2010-10-07, 00:30:04,VALID,917.834,VALID,0,VALID,90.6882,VALID,0,VALID,18.6889,VALID,5,VALID,0.153906,
2010-10-07, 00:31:04,VALID,917.862,VALID,0,VALID,90.4823,VALID,0,VALID,18.629,VALID,5,VALID,0.207422,
2010-10-07, 00:32:04,VALID,917.843,VALID,0,VALID,90.6043,VALID,0,VALID,18.7265,VALID,5,VALID,0.565234,
2010-10-07, 00:33:04,VALID,917.847,VALID,0,VALID,90.5204,VALID,0,VALID,18.824,VALID,5,VALID,0.562109,
2010-10-07, 00:34:04,VALID,917.8,VALID,0,VALID,89.6819,VALID,0,VALID,18.8824,VALID,5,VALID,0.00625,
2010-10-07, 00:35:04,VALID,917.818,VALID,0,VALID,89.8953,VALID,0,VALID,18.9424,VALID,5,VALID,0.649609,
2010-10-07, 00:36:04,VALID,917.814,VALID,0,VALID,89.6819,VALID,0,VALID,19.0203,VALID,5,VALID,0.564844,
2010-10-07, 00:37:04,VALID,917.806,VALID,0,VALID,89.1559,VALID,0,VALID,19.0774,VALID,5,VALID,0.636719,
2010-10-07, 00:38:04,VALID,917.8,VALID,0,VALID,89.2321,VALID,0.107441,VALID,19.1359,VALID,5,VALID,0.486328,
2010-10-07, 00:39:04,VALID,917.782,VALID,0,VALID,88.9195,VALID,0,VALID,19.1944,VALID,5,VALID,0.266406,
2010-10-07, 00:40:04,VALID,917.776,VALID,0,VALID,88.8128,VALID,0,VALID,19.2543,VALID,5,VALID,0.119531,
2010-10-07, 00:41:04,VALID,917.774,VALID,0,VALID,88.7137,VALID,0,VALID,19.2528,VALID,5,VALID,0,
2010-10-07, 00:42:04,VALID,917.77,VALID,0,VALID,88.9729,VALID,0,VALID,19.2723,VALID,5,VALID,0.146094,
2010-10-07, 00:43:04,VALID,917.746,VALID,0,VALID,89.0949,VALID,0,VALID,19.3323,VALID,5,VALID,0.133594,
2010-10-07, 00:44:04,VALID,917.766,VALID,0,VALID,88.8814,VALID,0,VALID,19.3113,VALID,5,VALID,0.192578,
2010-10-07, 00:45:04,VALID,917.753,VALID,0,VALID,87.9818,VALID,0,VALID,19.2918,VALID,5,VALID,0,
2010-10-07, 00:46:04,VALID,917.747,VALID,0,VALID,88.3173,VALID,0,VALID,19.2933,VALID,5,VALID,0,
2010-10-07, 00:47:04,VALID,917.734,VALID,0,VALID,88.6146,VALID,0,VALID,19.2334,VALID,5,VALID,0,
2010-10-07, 00:48:04,VALID,917.749,VALID,0,VALID,88.668,VALID,0,VALID,19.2139,VALID,5,VALID,0,
2010-10-07, 00:49:04,VALID,917.717,VALID,0,VALID,89.5904,VALID,0,VALID,19.2348,VALID,5,VALID,0,
2010-10-07, 00:50:04,VALID,917.712,VALID,0,VALID,89.3617,VALID,0,VALID,19.1749,VALID,5,VALID,0.00234375,
2010-10-07, 00:51:04,VALID,917.691,VALID,0,VALID,89.6285,VALID,0,VALID,19.0774,VALID,5,VALID,0.157813,
2010-10-07, 00:52:04,VALID,917.68,VALID,0,VALID,89.6209,VALID,0,VALID,18.9799,VALID,5,VALID,0.335938,
2010-10-07, 00:53:04,VALID,917.671,VALID,0,VALID,90.2155,VALID,0,VALID,18.8839,VALID,5,VALID,0.485547,
2010-10-07, 00:54:04,VALID,917.659,VALID,0,VALID,88.7899,VALID,0,VALID,18.785,VALID,5,VALID,0.579687,
2010-10-07, 00:55:04,VALID,917.648,VALID,0,VALID,89.7505,VALID,0.107441,VALID,18.8045,VALID,5,VALID,0.414063,
2010-10-07, 00:56:04,VALID,917.631,VALID,0,VALID,89.9639,VALID,0,VALID,18.8045,VALID,5,VALID,0.482812,
2010-10-07, 00:57:04,VALID,917.65,VALID,0,VALID,87.433,VALID,0.107441,VALID,18.8254,VALID,5,VALID,0.588672,
2010-10-07, 00:58:04,VALID,917.645,VALID,0,VALID,86.198,VALID,0,VALID,18.8434,VALID,5,VALID,0.826172,
2010-10-07, 00:59:04,VALID,917.618,VALID,0,VALID,86.846,VALID,0,VALID,18.8839,VALID,5,VALID,0.84375,
2010-10-07, 01:00:04,VALID,917.579,VALID,0,VALID,86.4648,VALID,0,VALID,18.8629,VALID,5,VALID,0.992969,
2010-10-07, 01:01:04,VALID,917.538,VALID,0,VALID,86.4648,VALID,0,VALID,18.9034,VALID,5,VALID,0.711328,
2010-10-07, 01:02:04,VALID,917.538,VALID,0,VALID,86.48,VALID,0,VALID,18.8839,VALID,5,VALID,0.61875,
2010-10-07, 01:03:04,VALID,917.519,VALID,0,VALID,87.5778,VALID,0,VALID,18.9229,VALID,5,VALID,0.599609,
2010-10-07, 01:04:04,VALID,917.521,VALID,0,VALID,88.828,VALID,0,VALID,18.8824,VALID,5,VALID,0.699609,
2010-10-07, 01:05:04,VALID,917.516,VALID,0,VALID,89.6742,VALID,0,VALID,18.8059,VALID,5,VALID,0.569531,
2010-10-07, 01:06:04,VALID,917.497,VALID,0,VALID,89.6895,VALID,0,VALID,18.6666,VALID,5,VALID,0.221094,
2010-10-07, 01:07:04,VALID,917.467,VALID,0,VALID,89.8267,VALID,0,VALID,18.629,VALID,5,VALID,0,
2010-10-07, 01:08:04,VALID,917.491,VALID,0,VALID,89.5904,VALID,0,VALID,18.6485,VALID,5,VALID,0,
2010-10-07, 01:09:04,VALID,917.453,VALID,0,VALID,90.4137,VALID,0,VALID,18.6694,VALID,5,VALID,0,
2010-10-07, 01:10:04,VALID,917.462,VALID,0,VALID,90.2917,VALID,0,VALID,18.668,VALID,5,VALID,0.0308594,
2010-10-07, 01:11:04,VALID,917.468,VALID,0,VALID,89.3922,VALID,0,VALID,18.6485,VALID,5,VALID,0,
2010-10-07, 01:12:04,VALID,917.454,VALID,0,VALID,88.2105,VALID,0,VALID,18.668,VALID,5,VALID,0,
2010-10-07, 01:13:04,VALID,917.438,VALID,0,VALID,87.8751,VALID,0,VALID,18.707,VALID,5,VALID,0.00820312,
2010-10-07, 01:14:04,VALID,917.462,VALID,0,VALID,87.6769,VALID,0,VALID,18.7474,VALID,5,VALID,0,
2010-10-07, 01:15:04,VALID,917.412,VALID,0,VALID,87.4634,VALID,0,VALID,18.7655,VALID,5,VALID,0,
2010-10-07, 01:16:04,VALID,917.401,VALID,0,VALID,87.5092,VALID,0,VALID,18.7864,VALID,5,VALID,0,
2010-10-07, 01:17:04,VALID,917.354,VALID,0,VALID,86.7697,VALID,0.107441,VALID,18.824,VALID,5,VALID,0,
2010-10-07, 01:18:04,VALID,917.321,VALID,0,VALID,87.1204,VALID,0,VALID,18.8449,VALID,5,VALID,0.157813,
2010-10-07, 01:19:04,VALID,917.3,VALID,0,VALID,87.9513,VALID,0.107441,VALID,18.8839,VALID,5,VALID,0,
2010-10-07, 01:20:04,VALID,917.27,VALID,0,VALID,87.8294,VALID,0,VALID,18.8434,VALID,5,VALID,0.309375,
2010-10-07, 01:21:04,VALID,917.249,VALID,0,VALID,88.9424,VALID,0,VALID,18.785,VALID,5,VALID,0.54375,
2010-10-07, 01:22:04,VALID,917.249,VALID,0,VALID,89.3769,VALID,0,VALID,18.668,VALID,5,VALID,0.661719,
2010-10-07, 01:23:04,VALID,917.238,VALID,0,VALID,89.1711,VALID,0,VALID,18.5316,VALID,5,VALID,0.707422,
2010-10-07, 01:24:04,VALID,917.222,VALID,0,VALID,89.6361,VALID,0,VALID,18.4745,VALID,5,VALID,0.855078,
2010-10-07, 01:25:04,VALID,917.219,VALID,0,VALID,89.9563,VALID,0,VALID,18.4341,VALID,5,VALID,0.900391,
2010-10-07, 01:26:04,VALID,917.209,VALID,0,VALID,87.6845,VALID,0,VALID,18.455,VALID,5,VALID,0.661719,
2010-10-07, 01:27:04,VALID,917.227,VALID,0,VALID,86.5029,VALID,0,VALID,18.5316,VALID,5,VALID,0.439063,
2010-10-07, 01:28:04,VALID,917.236,VALID,0,VALID,85.9159,VALID,0,VALID,18.6889,VALID,5,VALID,0.360547,
2010-10-07, 01:29:04,VALID,917.215,VALID,0,VALID,85.6796,VALID,0,VALID,18.8059,VALID,5,VALID,0.285547,
2010-10-07, 01:30:04,VALID,917.196,VALID,0,VALID,84.78,VALID,0,VALID,18.8824,VALID,5,VALID,0.43125,
2010-10-07, 01:31:04,VALID,917.187,VALID,0,VALID,84.4065,VALID,0,VALID,18.9604,VALID,5,VALID,0.445313,
2010-10-07, 01:32:04,VALID,917.177,VALID,0,VALID,83.6822,VALID,0,VALID,19.0203,VALID,5,VALID,0.445703,
2010-10-07, 01:33:04,VALID,917.169,VALID,0,VALID,83.4688,VALID,0,VALID,19.1178,VALID,5,VALID,0.251953,
2010-10-07, 01:34:04,VALID,917.16,VALID,0,VALID,84.5208,VALID,0,VALID,19.2153,VALID,5,VALID,0,
2010-10-07, 01:35:04,VALID,917.142,VALID,0,VALID,85.367,VALID,0,VALID,19.2543,VALID,5,VALID,0,
2010-10-07, 01:36:04,VALID,917.154,VALID,0,VALID,87.0594,VALID,0,VALID,19.2933,VALID,5,VALID,0,
2010-10-07, 01:37:04,VALID,917.151,VALID,0,VALID,85.6567,VALID,0,VALID,19.2543,VALID,5,VALID,0.101953,
2010-10-07, 01:38:04,VALID,917.145,VALID,0,VALID,83.8423,VALID,0,VALID,19.1763,VALID,5,VALID,0.2875,
2010-10-07, 01:39:04,VALID,917.139,VALID,0,VALID,84.8105,VALID,0,VALID,19.1373,VALID,5,VALID,0.405469,
2010-10-07, 01:40:04,VALID,917.149,VALID,0,VALID,83.8423,VALID,0,VALID,19.0384,VALID,5,VALID,0.388281,
2010-10-07, 01:41:04,VALID,917.158,VALID,0,VALID,83.5526,VALID,0,VALID,19.0983,VALID,5,VALID,0.433984,
2010-10-07, 01:42:04,VALID,917.153,VALID,0,VALID,84.3302,VALID,0,VALID,19.1568,VALID,5,VALID,0.465625,
2010-10-07, 01:43:04,VALID,917.148,VALID,0,VALID,84.0939,VALID,0,VALID,19.1568,VALID,5,VALID,0.434766,
2010-10-07, 01:44:04,VALID,917.16,VALID,0,VALID,84.071,VALID,0.107441,VALID,19.1568,VALID,5,VALID,0.389844,
2010-10-07, 01:45:04,VALID,917.161,VALID,0,VALID,86.1751,VALID,0,VALID,19.1568,VALID,5,VALID,0.307813,
2010-10-07, 01:46:04,VALID,917.143,VALID,0,VALID,83.7966,VALID,0,VALID,19.0969,VALID,5,VALID,0.329297,
2010-10-07, 01:47:04,VALID,917.106,VALID,0,VALID,84.3607,VALID,0,VALID,19.1359,VALID,5,VALID,0.432422,
2010-10-07, 01:48:04,VALID,917.086,VALID,0,VALID,83.545,VALID,0,VALID,19.1554,VALID,5,VALID,0.36875,
2010-10-07, 01:49:04,VALID,917.114,VALID,0,VALID,83.6441,VALID,0,VALID,19.2153,VALID,5,VALID,0.339453,
2010-10-07, 01:50:04,VALID,917.065,VALID,0,VALID,83.7356,VALID,0,VALID,19.2348,VALID,5,VALID,0.336328,
2010-10-07, 01:51:04,VALID,917.043,VALID,0,VALID,84.9249,VALID,0,VALID,19.2738,VALID,5,VALID,0.348437,
2010-10-07, 01:52:04,VALID,917.02,VALID,0,VALID,84.9325,VALID,0,VALID,19.2153,VALID,5,VALID,0.232031,
2010-10-07, 01:53:04,VALID,917.004,VALID,0,VALID,83.9643,VALID,0,VALID,19.2153,VALID,5,VALID,0.151172,
2010-10-07, 01:54:04,VALID,916.976,VALID,0,VALID,83.4307,VALID,0,VALID,19.1749,VALID,5,VALID,0.558203,
2010-10-07, 01:55:04,VALID,916.985,VALID,0,VALID,83.2477,VALID,0,VALID,19.1958,VALID,5,VALID,0.35,
2010-10-07, 01:56:04,VALID,916.918,VALID,0,VALID,82.8665,VALID,0,VALID,19.2139,VALID,5,VALID,0.367578,
2010-10-07, 01:57:04,VALID,916.907,VALID,0,VALID,83.1029,VALID,0,VALID,19.2738,VALID,5,VALID,0.278906,
2010-10-07, 01:58:04,VALID,916.899,VALID,0,VALID,83.3697,VALID,0,VALID,19.3128,VALID,5,VALID,0.182422,
2010-10-07, 01:59:04,VALID,916.897,VALID,0,VALID,84.0177,VALID,0,VALID,19.2933,VALID,5,VALID,0.407813,
2010-10-07, 02:00:04,VALID,916.913,VALID,0,VALID,84.5056,VALID,0,VALID,19.2139,VALID,5,VALID,0.469531,
2010-10-07, 02:01:04,VALID,916.89,VALID,0,VALID,86.3276,VALID,0,VALID,19.1373,VALID,5,VALID,0.600781,
2010-10-07, 02:02:04,VALID,916.881,VALID,0,VALID,85.8854,VALID,0,VALID,18.9814,VALID,5,VALID,0.553906,
2010-10-07, 02:03:04,VALID,916.872,VALID,0,VALID,85.8473,VALID,0,VALID,18.9229,VALID,5,VALID,0.497266,
2010-10-07, 02:04:04,VALID,916.889,VALID,0,VALID,85.8015,VALID,0,VALID,18.8629,VALID,5,VALID,0.482031,
2010-10-07, 02:05:04,VALID,916.877,VALID,0,VALID,84.8181,VALID,0,VALID,18.9214,VALID,5,VALID,0.411328,
2010-10-07, 02:06:04,VALID,916.857,VALID,0,VALID,84.8486,VALID,0,VALID,18.9814,VALID,5,VALID,0.241016,
2010-10-07, 02:07:04,VALID,916.831,VALID,0,VALID,83.4535,VALID,0,VALID,19.0189,VALID,5,VALID,0.567187,
2010-10-07, 02:08:04,VALID,916.816,VALID,0,VALID,83.4917,VALID,0,VALID,19.1164,VALID,5,VALID,0.367969,
2010-10-07, 02:09:04,VALID,916.831,VALID,0,VALID,84.3912,VALID,0,VALID,19.1958,VALID,5,VALID,0.185547,
2010-10-07, 02:10:04,VALID,916.841,VALID,0,VALID,82.9123,VALID,0,VALID,19.2153,VALID,5,VALID,0.526172,
2010-10-07, 02:11:04,VALID,916.838,VALID,0,VALID,85.306,VALID,0,VALID,19.2334,VALID,5,VALID,0.04375,
2010-10-07, 02:12:04,VALID,916.828,VALID,0,VALID,84.5894,VALID,0,VALID,19.2348,VALID,5,VALID,0,
2010-10-07, 02:13:04,VALID,916.825,VALID,0,VALID,85.9007,VALID,0,VALID,19.2334,VALID,5,VALID,0,
2010-10-07, 02:14:04,VALID,916.792,VALID,0,VALID,84.7953,VALID,0,VALID,19.2153,VALID,5,VALID,0.357422,
2010-10-07, 02:15:04,VALID,916.786,VALID,0,VALID,84.6275,VALID,0,VALID,19.2334,VALID,5,VALID,0.446484,
2010-10-07, 02:16:04,VALID,916.777,VALID,0,VALID,84.7419,VALID,0,VALID,19.2738,VALID,5,VALID,0.274609,
2010-10-07, 02:17:04,VALID,916.76,VALID,0,VALID,84.5894,VALID,0,VALID,19.2334,VALID,5,VALID,0,
2010-10-07, 02:18:04,VALID,916.744,VALID,0,VALID,85.8015,VALID,0,VALID,19.2334,VALID,5,VALID,0,
2010-10-07, 02:19:04,VALID,916.748,VALID,0,VALID,86.2208,VALID,0,VALID,19.2348,VALID,5,VALID,0,
2010-10-07, 02:20:04,VALID,916.707,VALID,0,VALID,87.4634,VALID,0,VALID,19.0983,VALID,5,VALID,0.349219,
2010-10-07, 02:21:04,VALID,916.693,VALID,0,VALID,87.898,VALID,0,VALID,18.9229,VALID,5,VALID,0.502734,
2010-10-07, 02:22:04,VALID,916.677,VALID,0,VALID,87.9056,VALID,0,VALID,18.7669,VALID,5,VALID,0.336719,
2010-10-07, 02:23:04,VALID,916.659,VALID,0,VALID,88.0886,VALID,0,VALID,18.6499,VALID,5,VALID,0.252734,
2010-10-07, 02:24:04,VALID,916.67,VALID,0,VALID,87.7989,VALID,0,VALID,18.5705,VALID,5,VALID,0.237891,
2010-10-07, 02:25:04,VALID,916.655,VALID,0,VALID,88.8128,VALID,0,VALID,18.5705,VALID,5,VALID,0.617578,
2010-10-07, 02:26:04,VALID,916.608,VALID,0,VALID,89.7962,VALID,0,VALID,18.533,VALID,5,VALID,0.582422,
2010-10-07, 02:27:04,VALID,916.634,VALID,0,VALID,90.307,VALID,0,VALID,18.3951,VALID,5,VALID,0.229687,
2010-10-07, 02:28:04,VALID,916.643,VALID,0,VALID,90.3985,VALID,0.107441,VALID,18.3575,VALID,5,VALID,0,
2010-10-07, 02:29:04,VALID,916.641,VALID,0,VALID,90.5738,VALID,0,VALID,18.3172,VALID,5,VALID,0,
2010-10-07, 02:30:04,VALID,916.628,VALID,0,VALID,89.9563,VALID,0,VALID,18.338,VALID,5,VALID,0,
2010-10-07, 02:31:04,VALID,916.603,VALID,0,VALID,89.4303,VALID,0,VALID,18.3965,VALID,5,VALID,0,
2010-10-07, 02:32:04,VALID,916.574,VALID,0,VALID,89.3007,VALID,0,VALID,18.4355,VALID,5,VALID,0.398828,
2010-10-07, 02:33:04,VALID,916.574,VALID,0,VALID,89.8572,VALID,0,VALID,18.4745,VALID,5,VALID,1.06758,
2010-10-07, 02:34:04,VALID,916.568,VALID,0,VALID,89.7886,VALID,0,VALID,18.3965,VALID,5,VALID,0.7625,
2010-10-07, 02:35:04,VALID,916.567,VALID,0,VALID,90.0173,VALID,0,VALID,18.338,VALID,5,VALID,0.328906,
2010-10-07, 02:36:04,VALID,916.562,VALID,0,VALID,89.5751,VALID,0,VALID,18.338,VALID,5,VALID,0.839063,
2010-10-07, 02:37:04,VALID,916.523,VALID,0,VALID,88.3325,VALID,0,VALID,18.5135,VALID,5,VALID,0.346875,
2010-10-07, 02:38:04,VALID,916.51,VALID,0,VALID,88.2258,VALID,0,VALID,18.6694,VALID,5,VALID,0.406641,
2010-10-07, 02:39:04,VALID,916.496,VALID,0,VALID,88.0276,VALID,0.107441,VALID,18.746,VALID,5,VALID,0.798828,
2010-10-07, 02:40:04,VALID,916.478,VALID,0,VALID,87.4558,VALID,0,VALID,18.785,VALID,5,VALID,0.873047,
2010-10-07, 02:41:04,VALID,916.484,VALID,0,VALID,87.7226,VALID,0,VALID,18.8449,VALID,5,VALID,0.532422,
2010-10-07, 02:42:04,VALID,916.47,VALID,0,VALID,87.715,VALID,0,VALID,18.785,VALID,5,VALID,0.639844,
2010-10-07, 02:43:04,VALID,916.474,VALID,0,VALID,88.6222,VALID,0,VALID,18.7655,VALID,5,VALID,0.515234,
2010-10-07, 02:44:04,VALID,916.475,VALID,0,VALID,89.6285,VALID,0,VALID,18.7474,VALID,5,VALID,0.35625,
2010-10-07, 02:45:04,VALID,916.472,VALID,0,VALID,88.3783,VALID,0,VALID,18.6694,VALID,5,VALID,0.901953,
2010-10-07, 02:46:04,VALID,916.431,VALID,0,VALID,88.9119,VALID,0,VALID,18.7279,VALID,5,VALID,0.889844,
2010-10-07, 02:47:04,VALID,916.431,VALID,0,VALID,89.3846,VALID,0,VALID,18.6694,VALID,5,VALID,0.876953,
2010-10-07, 02:48:04,VALID,916.418,VALID,0,VALID,89.4913,VALID,0,VALID,18.572,VALID,5,VALID,0.995313,
2010-10-07, 02:49:04,VALID,916.461,VALID,0,VALID,89.3541,VALID,0,VALID,18.5135,VALID,5,VALID,0.992578,
2010-10-07, 02:50:04,VALID,916.469,VALID,0,VALID,89.5599,VALID,0,VALID,18.5135,VALID,5,VALID,1.09375,
2010-10-07, 02:51:04,VALID,916.48,VALID,0,VALID,88.8967,VALID,0,VALID,18.4731,VALID,5,VALID,1.00781,
2010-10-07, 02:52:04,VALID,916.493,VALID,0,VALID,88.241,VALID,0,VALID,18.5121,VALID,5,VALID,0.885156,
2010-10-07, 02:53:04,VALID,916.469,VALID,0,VALID,87.3034,VALID,0,VALID,18.572,VALID,5,VALID,0.913672,
2010-10-07, 02:54:04,VALID,916.461,VALID,0,VALID,86.785,VALID,0,VALID,18.6889,VALID,5,VALID,0.93125,
2010-10-07, 02:55:04,VALID,916.481,VALID,0,VALID,86.3657,VALID,0,VALID,18.8059,VALID,5,VALID,0.857813,
2010-10-07, 02:56:04,VALID,916.469,VALID,0,VALID,86.4877,VALID,0,VALID,18.8644,VALID,5,VALID,0.805469,
2010-10-07, 02:57:04,VALID,916.499,VALID,0,VALID,86.846,VALID,0,VALID,18.8449,VALID,5,VALID,0.759375,
2010-10-07, 02:58:04,VALID,916.504,VALID,0,VALID,86.6706,VALID,0,VALID,18.8254,VALID,5,VALID,0.815625,
2010-10-07, 02:59:04,VALID,916.556,VALID,0,VALID,86.1827,VALID,0,VALID,18.8254,VALID,5,VALID,0.227734,
2010-10-07, 03:00:04,VALID,916.537,VALID,0,VALID,86.5944,VALID,0,VALID,18.8644,VALID,5,VALID,0.171875,
2010-10-07, 03:01:04,VALID,916.554,VALID,0,VALID,85.9998,VALID,0,VALID,18.8434,VALID,5,VALID,0.140625,
2010-10-07, 03:02:04,VALID,916.531,VALID,0,VALID,85.954,VALID,0,VALID,18.8824,VALID,5,VALID,0.784375,
2010-10-07, 03:03:04,VALID,916.531,VALID,0,VALID,85.9616,VALID,0,VALID,18.9424,VALID,5,VALID,0.849609,
2010-10-07, 03:04:04,VALID,916.52,VALID,0,VALID,86.6859,VALID,0,VALID,18.9229,VALID,5,VALID,0.720703,
2010-10-07, 03:05:04,VALID,916.52,VALID,0,VALID,86.846,VALID,0,VALID,18.9034,VALID,5,VALID,0.947656,
2010-10-07, 03:06:04,VALID,916.525,VALID,0,VALID,87.5016,VALID,0,VALID,18.8644,VALID,5,VALID,0.599609,
2010-10-07, 03:07:04,VALID,916.507,VALID,0,VALID,87.3491,VALID,0,VALID,18.8254,VALID,5,VALID,0.725781,
2010-10-07, 03:08:04,VALID,916.479,VALID,0,VALID,87.433,VALID,0,VALID,18.8254,VALID,5,VALID,0.612891,
2010-10-07, 03:09:04,VALID,916.479,VALID,0,VALID,88.0809,VALID,0,VALID,18.8839,VALID,5,VALID,0.212891,
2010-10-07, 03:10:04,VALID,916.469,VALID,0,VALID,87.5473,VALID,0,VALID,18.8644,VALID,5,VALID,0.553516,
2010-10-07, 03:11:04,VALID,916.444,VALID,0,VALID,88.0505,VALID,0,VALID,18.9034,VALID,5,VALID,0.530078,
2010-10-07, 03:12:04,VALID,916.409,VALID,0,VALID,88.4469,VALID,0,VALID,18.8839,VALID,5,VALID,0.298047,
2010-10-07, 03:13:04,VALID,916.427,VALID,0,VALID,88.7137,VALID,0,VALID,18.8629,VALID,5,VALID,0.154687,
2010-10-07, 03:14:04,VALID,916.47,VALID,0,VALID,88.9348,VALID,0,VALID,18.8644,VALID,5,VALID,0,
2010-10-07, 03:15:04,VALID,916.455,VALID,0,VALID,89.5142,VALID,0,VALID,18.8059,VALID,5,VALID,0.0492188,
2010-10-07, 03:16:04,VALID,916.488,VALID,0,VALID,89.781,VALID,0,VALID,18.7864,VALID,5,VALID,0,
2010-10-07, 03:17:04,VALID,916.476,VALID,0,VALID,89.4913,VALID,0,VALID,18.7265,VALID,5,VALID,0,
2010-10-07, 03:18:04,VALID,916.478,VALID,0,VALID,89.3769,VALID,0,VALID,18.7265,VALID,5,VALID,0,
2010-10-07, 03:19:04,VALID,916.482,VALID,0,VALID,89.7124,VALID,0,VALID,18.7279,VALID,5,VALID,0,
2010-10-07, 03:20:04,VALID,916.486,VALID,0,VALID,88.8738,VALID,0,VALID,18.7084,VALID,5,VALID,0,
2010-10-07, 03:21:04,VALID,916.456,VALID,0,VALID,88.9271,VALID,0,VALID,18.7084,VALID,5,VALID,0,
2010-10-07, 03:22:04,VALID,916.495,VALID,0,VALID,89.0186,VALID,0,VALID,18.7084,VALID,5,VALID,0,
2010-10-07, 03:23:04,VALID,916.48,VALID,0,VALID,89.2397,VALID,0,VALID,18.7084,VALID,5,VALID,0.268359,
2010-10-07, 03:24:04,VALID,916.497,VALID,0,VALID,88.7137,VALID,0,VALID,18.7279,VALID,5,VALID,0.317969,
2010-10-07, 03:25:04,VALID,916.52,VALID,0,VALID,87.7684,VALID,0,VALID,18.7474,VALID,5,VALID,0,
2010-10-07, 03:26:04,VALID,916.521,VALID,0,VALID,89.3464,VALID,0,VALID,18.7279,VALID,5,VALID,0,
2010-10-07, 03:27:04,VALID,916.514,VALID,0,VALID,88.5688,VALID,0,VALID,18.6889,VALID,5,VALID,0.592578,
2010-10-07, 03:28:04,VALID,916.527,VALID,0,VALID,88.1496,VALID,0,VALID,18.6889,VALID,5,VALID,0.692578,
2010-10-07, 03:29:04,VALID,916.533,VALID,0,VALID,88.1114,VALID,0,VALID,18.7279,VALID,5,VALID,0.24375,
2010-10-07, 03:30:04,VALID,916.562,VALID,0,VALID,88.7442,VALID,0,VALID,18.7279,VALID,5,VALID,0.0523437,
2010-10-07, 03:31:04,VALID,916.551,VALID,0,VALID,89.1863,VALID,0,VALID,18.6499,VALID,5,VALID,0,
2010-10-07, 03:32:04,VALID,916.588,VALID,0,VALID,89.3617,VALID,0,VALID,18.5914,VALID,5,VALID,0,
2010-10-07, 03:33:04,VALID,916.56,VALID,0,VALID,89.0415,VALID,0,VALID,18.5525,VALID,5,VALID,0.582422,
2010-10-07, 03:34:04,VALID,916.56,VALID,0,VALID,89.133,VALID,0,VALID,18.5525,VALID,5,VALID,0.351172,
2010-10-07, 03:35:04,VALID,916.562,VALID,0,VALID,89.0872,VALID,0,VALID,18.572,VALID,5,VALID,0.623047,
2010-10-07, 03:36:04,VALID,916.516,VALID,0,VALID,88.8814,VALID,0,VALID,18.6095,VALID,5,VALID,0.778906,
2010-10-07, 03:37:04,VALID,916.47,VALID,0,VALID,88.7137,VALID,0,VALID,18.6485,VALID,5,VALID,0.377734,
2010-10-07, 03:38:04,VALID,916.463,VALID,0,VALID,88.4088,VALID,0,VALID,18.7474,VALID,5,VALID,0.437891,
2010-10-07, 03:39:04,VALID,916.446,VALID,0,VALID,88.241,VALID,0,VALID,18.746,VALID,5,VALID,0.0488281,
2010-10-07, 03:40:04,VALID,916.452,VALID,0,VALID,88.668,VALID,0,VALID,18.7669,VALID,5,VALID,0.225,
2010-10-07, 03:41:04,VALID,916.465,VALID,0,VALID,88.6832,VALID,0,VALID,18.7084,VALID,5,VALID,0.19375,
2010-10-07, 03:42:04,VALID,916.43,VALID,0,VALID,88.8357,VALID,0,VALID,18.6694,VALID,5,VALID,0.207422,
2010-10-07, 03:43:04,VALID,916.408,VALID,0,VALID,88.7747,VALID,0,VALID,18.6499,VALID,5,VALID,0,
2010-10-07, 03:44:04,VALID,916.386,VALID,0,VALID,88.5231,VALID,0,VALID,18.5705,VALID,5,VALID,0.400781,
2010-10-07, 03:45:04,VALID,916.38,VALID,0,VALID,88.6756,VALID,0,VALID,18.5511,VALID,5,VALID,0.298828,
2010-10-07, 03:46:04,VALID,916.375,VALID,0,VALID,88.9805,VALID,0,VALID,18.5525,VALID,5,VALID,0.241016,
2010-10-07, 03:47:04,VALID,916.396,VALID,0,VALID,89.4227,VALID,0,VALID,18.455,VALID,5,VALID,0.117188,
2010-10-07, 03:48:04,VALID,916.389,VALID,0,VALID,90.307,VALID,0,VALID,18.3185,VALID,5,VALID,0.221484,
2010-10-07, 03:49:04,VALID,916.411,VALID,0,VALID,90.833,VALID,0,VALID,18.2601,VALID,5,VALID,0.260547,
2010-10-07, 03:50:04,VALID,916.406,VALID,0,VALID,90.8406,VALID,0,VALID,18.1626,VALID,5,VALID,0.391797,
2010-10-07, 03:51:04,VALID,916.382,VALID,0,VALID,91.1989,VALID,0,VALID,18.0651,VALID,5,VALID,0.313281,
2010-10-07, 03:52:04,VALID,916.344,VALID,0,VALID,91.6487,VALID,0,VALID,17.9872,VALID,5,VALID,0.144922,